Simultaneous Nadir Overpasses (SNOs) Predictions

Prediction of SNOs between AQUA and GOES-15 Satellite Orbit:

Table of predicted SNOs for the next 14.0 days since TLE Epoch: 1/3/2015
Index Date Time (AQUA) AQUA Lat,Lon GOES-15 Lat,Lon Distance(km) Time Diff (sec)
1 01/04/2015 22:35:25 0.15,-134.91 0.09,-135.14 26.03 80
2 01/06/2015 22:23:11 0.74,-131.93 0.09,-135.09 358.30 80
3 01/07/2015 10:44:26 0.35,-137.09 -0.10,-135.12 224.63 80
4 01/09/2015 10:32:12 -0.27,-134.11 -0.10,-135.06 107.36 80
5 01/09/2015 22:53:36 -0.80,-139.31 0.10,-135.00 489.24 80
6 01/11/2015 10:19:58 -0.91,-131.14 -0.09,-135.01 438.91 80
7 01/11/2015 22:41:21 -0.21,-136.33 0.10,-134.95 157.67 80
8 01/13/2015 22:29:06 0.39,-133.35 0.10,-134.88 173.49 80
9 01/14/2015 10:50:21 0.69,-138.50 -0.10,-134.91 409.31 80
10 01/16/2015 10:38:06 0.05,-135.53 -0.10,-134.84 78.97 80




NCC Satellite Simultaneous Nadir Overpasses (SNOs) Prediction Service
